星链-11736 (STARLINK-11736)

导读 | 星芒AI

STARLINK-11736 是 SpaceX 星链计划中的一颗低轨通信卫星,属于第 51 批组网发射的星链卫星之一。该卫星于 2023 年 9 月 29 日由猎鹰 9 号火箭从美国卡纳维拉尔角发射升空。它运行在约 550 公里的轨道高度,旨在为全球用户提供高速互联网服务。星链项目致力于构建覆盖全球的卫星互联网网络,改善偏远地区的网络接入条件。STARLINK-11736 与其他星链卫星协同工作,提升网络容量与稳定性。

基本信息
目录编号:
64317
目录名称:
STARLINK-11736
国际标识:
2025-124A
轨道中心:
EARTH
卫星名称:
星链-11736
卫星全名:
星链-11736 (STARLINK-11736)
卫星状态:
在轨 (已飞行146 天)
发射日期:
2025-06-10 UTC
国别 :
美国 (US)
星等 :
--
轨道信息
数据来源 国际轨道数据
星历时间: 2025-11-02T14:50:42+0800
20小时前
查看轨道信息
半长轴: 6734.522km
偏心率: 0.0001412
轨道倾角: 42.998°
近地点辐角 274.466°
升交点赤经 77.468°
平近点角 85.605°
近地点: 355.436km
远地点: 357.338km
周期: 91.668分钟
每日圈数: 15.708788
详细信息
固有亮度:
5
最大亮度:
2.5
卫星平台:
Starlink V1.0
覆盖范围:
全球
运营商:
太空探索技术公司
运营商所在国:
美国
制造商(研发单位):
太空探索技术公司
制造商所在国:
美国
使用方式:
暂无
卫星简介
Starlink 计划是 SpaceX 推出的全球卫星互联网项目,通过发射低轨道卫星,为全球尤其是偏远地区提供高速、低延迟的互联网服务。自 2019 年起,Starlink 已部署数千颗卫星,旨在缩小全球数字鸿沟,推动互联网普及。该项目还为军事、航空等行业提供通信支持,带来广泛经济效益。
2D轨道图
3D轨道图
轨道高度分析图
轨道倾角分析图
轨道综合分析图
查看轨道综合分析图